Effective Sunday, March 17, 2024, the National Weather Service National Data Buoy Center will discontinue its Dial-A-Buoy Interactive Voice Response system. For more information, see Service Change Notice 24-06 (PDF).

Station CECC1 - 9419750 - Crescent City, CA Image indicating link to RSS feed of recent meteorological observations for station CECC1


Conditions at CECC1 as of
(6:18 pm PST on 02/23/2024)
0218 GMT on 02/24/2024:
     

Click on the graph icon in the table below to see a time series plot of the last five days of that observation.

5-day plot - Wind Direction Wind Direction (WDIR): N ( 360 deg true )
5-day plot - Wind Speed Wind Speed (WSPD): 2.9 kts
5-day plot - Wind Gust Wind Gust (GST): 6.0 kts
5-day plot - Atmospheric Pressure Atmospheric Pressure (PRES):30.09 in
5-day plot - Air Temperature Air Temperature (ATMP): 55.8 °F
5-day plot - Water Temperature Water Temperature (WTMP): 54.1 °F
5-day plot - Wind Speed at 10 Meters Wind Speed at 10 meters (WSPD10M): 3.9 kts
5-day plot - Wind Speed at 20 Meters Wind Speed at 20 meters (WSPD20M): 3.9 kts
5-day plot -  Wind Speed, Wind Gust and Atmospheric Pressure Combined plot of Wind Speed, Gust, and Air Pressure
NOS Water Level Observation Network Water Level
Previous observations
TIME
(PST)
5-day plot - Wind Direction
WDIR
 
5-day plot - Wind Speed
WSPD
kts
5-day plot - Wind Gust
GST
kts
5-day plot - Wave Height
WVHT
ft
5-day plot - Dominant Wave Period
DPD
sec
5-day plot - Average Wave Period
APD
sec
5-day plot - Mean Wave Direction
MWD
 
5-day plot - Atmospheric Pressure
PRES
in
5-day plot - Pressure Tendency
PTDY
in
5-day plot - Air Temperature
ATMP
°F
5-day plot - Water Temperature
WTMP
°F
5-day plot - Dew Point
DEWP
°F
5-day plot - Salinity
SAL
psu
5-day plot - Visibility
VIS
nmi
5-day plot - Tide (above MLLW)
TIDE
ft
2024-02-23 06:12 pmNNW 5.1 6.0----30.09- 56.1 54.3----
2024-02-23 06:06 pm N 2.9 4.1----30.09- 56.3 54.3----
2024-02-23 06:00 pm N 2.9 5.1----30.10-0.06 56.3 54.3----
2024-02-23 05:54 pm N 4.1 5.1----30.10- 56.7 54.3----
2024-02-23 05:48 pm N 4.1 5.1----30.10- 57.0 54.7----
2024-02-23 05:42 pm N 2.9 5.1----30.10- 57.6 54.5----
2024-02-23 05:36 pm N 4.1 5.1----30.10- 57.9 54.3----
2024-02-23 05:30 pmNNE 2.9 5.1----30.11-------
2024-02-23 05:24 pm N 5.1 6.0----30.11-------
2024-02-23 05:18 pm N 5.1 7.0----30.11-- 54.5----
2024-02-23 05:12 pm N 5.1 6.0----30.11-- 54.5----
2024-02-23 05:06 pm N 5.1 8.0----30.11-- 54.7----
2024-02-23 05:00 pm N 6.0 8.9----30.11-0.06- 54.7----
2024-02-23 04:54 pm N 5.1 8.9----30.11-- 54.7----
2024-02-23 04:48 pm N 6.0 9.9----30.11-- 54.7----
2024-02-23 04:42 pm N 8.0 8.9----30.11-- 54.7----
2024-02-23 04:36 pm N 6.0 7.0----30.11-- 54.5----
2024-02-23 04:30 pmNNW 6.0 8.0----30.11-- 54.5----
2024-02-23 04:24 pmNNW 6.0 9.9----30.11-- 54.7----
2024-02-23 04:18 pmNNW 7.0 9.9----30.12-- 54.3----
2024-02-23 04:12 pmNNW 8.0 8.9----30.12-- 54.5----
2024-02-23 04:06 pm N 7.0 9.9----30.12-- 54.5----
2024-02-23 04:00 pmNNW 8.0 9.9----30.12-0.07------
2024-02-23 03:54 pmNNW 8.0 9.9----30.13-------
2024-02-23 03:48 pmNNW 7.0 9.9----30.13- 59.9 54.5----
2024-02-23 03:42 pm N 8.0 9.9----30.14- 60.1 54.5----
2024-02-23 03:36 pm N 7.0 9.9----30.14- 61.2 54.7----
2024-02-23 03:30 pm N 8.9 9.9----30.14- 61.7 54.1----
2024-02-23 03:24 pm N 6.0 8.9----30.14- 62.1 54.1----
2024-02-23 03:18 pm N 5.1 8.9----30.14-- 54.1----
2024-02-23 03:12 pmNNW 7.0 8.9----30.14-- 54.1----
2024-02-23 03:06 pmNNW 8.0 8.9----30.15-- 54.1----
2024-02-23 03:00 pmNNW 8.9 9.9----30.15-0.07 60.8 54.0----
2024-02-23 02:54 pmNNW 8.0 9.9----30.15- 60.6 54.0----
2024-02-23 02:48 pm NW 7.0 9.9----30.16- 60.4 54.0----
2024-02-23 02:42 pm NW 8.0 8.9----30.16- 60.4 54.0----
2024-02-23 02:36 pmNNW 8.0 9.9----30.16- 60.6 54.0----
2024-02-23 02:30 pm NW 8.0 8.9----30.16- 60.1 54.0----
2024-02-23 02:24 pmNNW 7.0 11.1----30.16- 60.3 54.0----
2024-02-23 02:18 pmNNW 8.0 11.1----30.16- 60.1 54.0----
2024-02-23 02:12 pmNNW 9.9 12.0----30.16- 60.1 54.0----
2024-02-23 02:06 pmNNW 11.1 12.0----30.16- 60.3 54.0----
2024-02-23 02:00 pmNNW 8.0 11.1----30.16-0.06 60.6 54.0----
2024-02-23 01:54 pm NW 8.9 11.1----30.17- 60.6 54.0----
2024-02-23 01:48 pm NW 8.0 9.9----30.17- 60.4 54.0----
2024-02-23 01:42 pm NW 7.0 11.1----30.18- 60.1 54.0----
2024-02-23 01:36 pm W 7.0 8.9----30.18- 57.7 54.0----
2024-02-23 01:30 pm W 8.9 9.9----30.18- 55.9 54.0----
2024-02-23 01:24 pm W 8.0 8.9----30.18- 55.0 54.0----
2024-02-23 01:18 pm W 8.0 8.9----30.19- 55.2 54.0----
2024-02-23 01:12 pm W 6.0 6.0----30.19- 55.0 54.0----
2024-02-23 01:06 pm W 6.0 7.0----30.19- 54.9 54.0----
2024-02-23 01:00 pm W 5.1 6.0----30.20-0.02 54.5 53.8----
2024-02-23 12:54 pm W 5.1 6.0----30.20- 54.1 53.8----
2024-02-23 12:48 pm W 5.1 5.1----30.20- 54.9 53.8----
2024-02-23 12:42 pmWSW 1.9 4.1----30.21- 55.0 53.8----
2024-02-23 12:36 pmWSW 1.9 2.9----30.21- 54.9 53.8----
2024-02-23 12:30 pm W 1.0 1.0----30.21- 54.0 53.8----
2024-02-23 12:24 pm W 1.0 1.9----30.22- 55.0 53.8----
2024-02-23 12:18 pm- 0.0 1.9----30.22- 55.2 53.8----
2024-02-23 12:12 pm S 1.0 1.9----30.22- 55.0 53.8----
2024-02-23 12:06 pmWSW 1.9 1.9----30.22- 54.3 53.8----
2024-02-23 12:00 pm W 1.9 4.1----30.23+0.01 53.2 53.8----
2024-02-23 11:54 am W 4.1 4.1----30.23- 53.4 53.8----
2024-02-23 11:48 am W 4.1 4.1----30.23- 53.2 53.8----
2024-02-23 11:42 amWSW 2.9 4.1----30.23- 53.6 53.8----
2024-02-23 11:36 am SW 2.9 2.9----30.23- 53.8 53.8----
2024-02-23 11:30 am SW 1.9 2.9----30.22- 53.4 53.8----
2024-02-23 11:24 am SW 2.9 2.9----30.22- 53.4 53.8----
2024-02-23 11:18 am SW 2.9 4.1----30.22-- 53.8----
2024-02-23 11:12 amSSW 1.9 4.1----30.22- 53.8 53.8----
2024-02-23 11:06 amSSW 2.9 5.1----30.22- 53.6 53.8----
2024-02-23 11:00 amSSW 2.9 5.1----30.22+0.02 53.6 53.8----
2024-02-23 10:54 amSSW 1.9 5.1----30.22- 53.6 53.8----
2024-02-23 10:48 amSSW 4.1 5.1----30.22- 53.1 53.8----
2024-02-23 10:42 amSSW 4.1 5.1----30.22- 53.2 53.8----
2024-02-23 10:36 amSSW 2.9 4.1----30.22- 53.1 53.6----
2024-02-23 10:30 amSSW 4.1 5.1----30.22- 53.1 53.6----
2024-02-23 10:24 amSSW 4.1 5.1----30.22- 53.2 53.6----
2024-02-23 10:18 amSSW 2.9 4.1----30.22- 52.9 53.6----
2024-02-23 10:12 am SW 2.9 4.1----30.22- 52.9 53.6----
2024-02-23 10:06 am SW 1.9 2.9----30.22- 53.1 53.6----
2024-02-23 10:00 am SW 1.9 4.1----30.22+0.00 53.1 53.6----
2024-02-23 09:54 amSSW 2.9 4.1----30.22- 53.2 53.6----
2024-02-23 09:48 am S 2.9 5.1----30.22- 53.6 53.6----
2024-02-23 09:42 am S 4.1 5.1----30.22- 53.2 53.6----
2024-02-23 09:36 am S 2.9 4.1----30.21- 53.4 53.6----
2024-02-23 09:30 am S 4.1 4.1----30.21- 53.1 53.6----
2024-02-23 09:24 amSSW 1.9 2.9----30.21- 53.6 53.6----
2024-02-23 09:18 am- 0.0 1.9----30.21- 56.3 53.6----
2024-02-23 09:12 am- 0.0 1.0----30.21- 56.7 53.6----
2024-02-23 09:06 am- 0.0 2.9----30.21- 54.1 53.6----
2024-02-23 09:00 am S 1.9 4.1----30.21-0.01 52.7 53.6----
2024-02-23 08:54 amSSE 2.9 5.1----30.21- 52.9 53.6----
2024-02-23 08:48 amENE 5.1 8.0----30.21- 52.5 53.6----
2024-02-23 08:42 amENE 5.1 8.0----30.21- 52.5 53.6----
2024-02-23 08:36 amENE 5.1 8.0----30.21- 52.0 53.6----
2024-02-23 08:30 am NE 5.1 7.0----30.21- 52.0 53.6----
2024-02-23 08:24 amENE 5.1 8.0----30.21- 51.6 53.6----
2024-02-23 08:18 am NE 6.0 9.9----30.21- 51.6 53.6----
2024-02-23 08:12 am NE 7.0 9.9----30.20- 51.4 53.6----
2024-02-23 08:06 am NE 8.0 11.1----30.20- 51.3 53.6----
2024-02-23 08:00 amENE 7.0 11.1----30.21-0.02 50.5 53.6----
2024-02-23 07:54 amENE 8.0 13.0----30.21- 50.5 53.6----
2024-02-23 07:48 amENE 7.0 9.9----30.21- 50.0 53.6----
2024-02-23 07:42 amENE 7.0 12.0----30.21- 50.0 53.6----
2024-02-23 07:36 amENE 8.9 12.0----30.22- 50.0 53.6----
2024-02-23 07:30 amENE 7.0 13.0----30.22- 49.8 53.6----
2024-02-23 07:24 am NE 8.0 9.9----30.22- 49.1 53.6----
2024-02-23 07:18 am NE 6.0 8.0----30.22- 48.6 53.6----
2024-02-23 07:12 am NE 5.1 7.0----30.22- 48.6 53.6----
2024-02-23 07:06 am NE 4.1 8.9----30.22- 48.6 53.6----
2024-02-23 07:00 amENE 5.1 8.9----30.21-0.02 48.6 53.6----
2024-02-23 06:54 am NE 6.0 8.9----30.21- 48.4 53.6----
2024-02-23 06:48 am NE 7.0 8.9----30.22- 48.6 53.6----
2024-02-23 06:42 am NE 4.1 5.1----30.22- 48.4 53.6----
2024-02-23 06:36 amNNE 4.1 6.0----30.22- 48.4 53.6----
2024-02-23 06:30 amNNE 1.9 6.0----30.22- 48.6 53.6----
2024-02-23 06:24 am NE 1.9 5.1----30.22- 48.9 53.6----
2024-02-23 06:18 amENE 4.1 8.9----30.22- 48.9 53.6----
2024-02-23 06:12 amENE 5.1 7.0----30.22- 48.9 53.6----
2024-02-23 06:06 amENE 4.1 8.0----30.22- 49.1 53.6----
2024-02-23 06:00 amENE 4.1 8.0----30.22-0.02 49.1 53.6----
2024-02-23 05:54 amENE 4.1 8.0----30.22- 49.1 53.6----
2024-02-23 05:48 am NE 4.1 6.0----30.22- 48.9 53.6----
2024-02-23 05:42 amENE 4.1 7.0----30.22- 49.3 53.6----
2024-02-23 05:36 am NE 2.9 5.1----30.23- 49.5 53.6----
2024-02-23 05:30 am NE 2.9 8.0----30.23- 49.5 53.6----
2024-02-23 05:24 am NE 7.0 8.9----30.22- 49.6 53.6----
2024-02-23 05:18 amENE 5.1 8.0----30.23- 49.6 53.6----
2024-02-23 05:12 amENE 5.1 6.0----30.23- 49.6 53.6----
2024-02-23 05:06 amENE 4.1 7.0----30.23- 49.5 53.6----
2024-02-23 05:00 am NE 5.1 7.0----30.23-0.02 49.3 53.6----
2024-02-23 04:54 am NE 4.1 4.1----30.23- 49.5 53.6----
2024-02-23 04:48 amENE 2.9 4.1----30.23- 49.6 53.6----
2024-02-23 04:42 amENE 1.9 4.1----30.23- 49.8 53.8----
2024-02-23 04:36 amENE 1.0 1.9----30.24- 49.6 53.8----
2024-02-23 04:30 am- 0.0 4.1----30.24- 49.8 53.8----
2024-02-23 04:24 amENE 4.1 5.1----30.23- 49.5 53.8----
2024-02-23 04:18 am NE 4.1 4.1----30.24- 49.5 53.8----
2024-02-23 04:12 am E 1.0 2.9----30.24- 49.8 53.8----
2024-02-23 04:06 am E 2.9 6.0----30.24- 49.8 53.8----
2024-02-23 04:00 amENE 2.9 5.1----30.24-0.03 49.8 53.8----
2024-02-23 03:54 amENE 4.1 6.0----30.24- 49.8 53.8----
2024-02-23 03:48 am NE 5.1 7.0----30.24- 49.8 53.8----
2024-02-23 03:42 am NE 4.1 7.0----30.24- 50.2 54.0----
2024-02-23 03:36 am NE 5.1 8.0----30.24- 50.4 54.0----
2024-02-23 03:30 am NE 5.1 8.0----30.24- 50.2 54.0----
2024-02-23 03:24 am NE 4.1 8.0----30.24- 50.0 54.0----
2024-02-23 03:18 am NE 6.0 8.0----30.24- 50.0 54.0----
2024-02-23 03:12 am NE 4.1 8.0----30.24- 50.0 54.0----
2024-02-23 03:06 am NE 5.1 6.0----30.24- 50.0 54.0----
2024-02-23 03:00 am NE 5.1 8.0----30.24-0.01 50.0 54.0----
2024-02-23 02:54 am NE 6.0 8.9----30.24- 50.2 54.0----
2024-02-23 02:48 amNNE 6.0 7.0----30.24- 50.0 53.8----
2024-02-23 02:42 amNNE 5.1 7.0----30.24- 50.2 53.8----
2024-02-23 02:36 am NE 6.0 8.0----30.24- 50.5 54.0----
2024-02-23 02:30 am NE 6.0 7.0----30.25- 50.4 54.0----
2024-02-23 02:24 am NE 5.1 6.0----30.25- 50.0 53.8----
2024-02-23 02:18 amNNE 5.1 6.0----30.25- 50.0 53.8----
2024-02-23 02:12 amNNE 4.1 5.1----30.24- 50.2 54.0----
2024-02-23 02:06 am NE 4.1 8.0----30.25- 50.4 53.8----
2024-02-23 02:00 am NE 5.1 8.9----30.25+0.00 50.7 53.8----
2024-02-23 01:54 am E 6.0 8.9----30.26- 50.7 53.8----
2024-02-23 01:48 am NE 5.1 7.0----30.25- 50.5 53.8----
2024-02-23 01:42 amENE 5.1 6.0----30.25- 50.9 53.8----
2024-02-23 01:36 am NE 5.1 7.0----30.25- 51.1 53.8----
2024-02-23 01:30 am E 2.9 7.0----30.26- 51.1 53.8----
2024-02-23 01:24 amNNE 6.0 7.0----30.26- 51.3 53.8----
2024-02-23 01:18 am E 5.1 6.0----30.27- 51.6 53.8----
2024-02-23 01:12 amENE 5.1 7.0----30.27- 51.4 53.8----
2024-02-23 01:06 am NE 5.1 7.0----30.27- 51.1 53.8----
2024-02-23 01:00 am NE 5.1 6.0----30.27+0.02 51.1 53.8----
2024-02-23 12:54 am NE 4.1 7.0----30.27- 50.9 53.8----
2024-02-23 12:48 am NE 5.1 7.0----30.26- 50.7 53.8----
2024-02-23 12:42 am NE 5.1 6.0----30.26- 50.7 53.8----
2024-02-23 12:36 am NE 4.1 5.1----30.27- 50.9 53.8----
2024-02-23 12:30 amNNE 2.9 4.1----30.27- 50.7 53.8----
2024-02-23 12:24 am NE 4.1 5.1----30.26- 50.7 53.8----
2024-02-23 12:18 am NE 2.9 5.1----30.26- 50.5 53.8----
2024-02-23 12:12 am NE 2.9 4.1----30.26- 50.4 53.8----
2024-02-23 12:06 am NE 4.1 5.1----30.26- 50.2 53.8----
2024-02-23 12:00 amNNE 1.9 4.1----30.25+0.02 50.0 53.8----
2024-02-22 11:54 pmNNE 1.9 2.9----30.25- 50.2 53.8----
2024-02-22 11:48 pm N 1.9 2.9----30.25- 50.2 53.8----
2024-02-22 11:42 pm N 1.9 2.9----30.25- 50.4 53.8----
2024-02-22 11:36 pm N 1.9 2.9----30.25- 50.4 53.8----
2024-02-22 11:30 pm N 1.9 1.9----30.25- 50.4 53.8----
2024-02-22 11:24 pm N 1.0 1.9----30.25- 50.4 53.8----
2024-02-22 11:18 pm N 1.9 1.9----30.25- 50.5 53.8----
2024-02-22 11:12 pmNNW 1.9 2.9----30.25- 50.5 53.8----
2024-02-22 11:06 pm N 1.0 4.1----30.25- 50.9 53.8----
2024-02-22 11:00 pm NE 4.1 5.1----30.24+0.01 50.5 53.8----
2024-02-22 10:54 pm NE 2.9 4.1----30.24- 50.4 53.8----
2024-02-22 10:48 pmNNE 2.9 2.9----30.24-- 53.8----
2024-02-22 10:42 pmNNE 1.9 2.9----30.24- 50.7 53.8----
2024-02-22 10:36 pmNNE 2.9 2.9----30.25- 50.7 53.8----
2024-02-22 10:30 pmNNE 2.9 2.9----30.25- 50.7 53.8----
2024-02-22 10:24 pmNNW 1.9 2.9----30.25- 51.1 53.8----
2024-02-22 10:18 pm N 1.9 2.9----30.24- 51.1 53.8----
2024-02-22 10:12 pm NE 1.9 1.9----30.25- 51.1 53.8----
2024-02-22 10:06 pm NE 1.9 2.9----30.25- 51.3 53.8----
2024-02-22 10:00 pm N 1.9 2.9----30.25+0.02 51.4 53.8----
2024-02-22 09:54 pm- 0.0 1.0----30.25- 51.8 53.8----
2024-02-22 09:48 pmNNW 1.0 1.9----30.24-- 53.8----
2024-02-22 09:42 pm- 0.0 1.9----30.24- 51.8 53.8----
2024-02-22 09:36 pm W 1.0 1.9----30.24- 51.8 53.8----
2024-02-22 09:30 pm E 1.0 2.9----30.24- 51.6 53.8----
2024-02-22 09:24 pmENE 1.9 4.1----30.24- 51.6 53.8----
2024-02-22 09:18 pmENE 2.9 4.1----30.23- 51.6 53.8----
2024-02-22 09:12 pm NE 2.9 4.1----30.23- 51.4 54.0----
2024-02-22 09:06 pm NE 1.9 5.1----30.24- 51.3 54.0----
2024-02-22 09:00 pm NE 5.1 5.1----30.23+0.02 51.3 54.0----
2024-02-22 08:54 pm NE 2.9 5.1----30.23- 51.3 54.0----
2024-02-22 08:48 pm NE 2.9 5.1----30.23- 51.3 54.0----
2024-02-22 08:42 pm NE 4.1 4.1----30.24- 51.3 54.0----
2024-02-22 08:36 pmNNE 2.9 2.9----30.24- 51.6 54.0----
2024-02-22 08:30 pm- 0.0 1.0----30.24- 51.4 54.0----
2024-02-22 08:24 pm- 0.0 2.9----30.24- 51.6 54.0----
2024-02-22 08:18 pmENE 1.9 2.9----30.24- 51.6 54.1----
2024-02-22 08:12 pm NE 1.9 1.9----30.24- 51.8 54.1----
2024-02-22 08:06 pm- 0.0 1.0----30.23- 51.8 54.1----
2024-02-22 08:00 pm- 0.0 1.0----30.23+0.02 52.0 54.1----
2024-02-22 07:54 pm- 0.0 1.0----30.24- 52.0 54.1----
2024-02-22 07:48 pm NE 1.9 4.1----30.23- 52.0 54.1----
2024-02-22 07:42 pm NE 2.9 4.1----30.23- 52.2 54.1----
2024-02-22 07:36 pm N 1.9 1.9----30.23- 52.5 54.1----
2024-02-22 07:30 pm- 0.0 1.9----30.23- 52.5 54.1----
2024-02-22 07:24 pm NE 1.9 2.9----30.23- 52.7 54.1----
2024-02-22 07:18 pm NE 2.9 4.1----30.23-------
2024-02-22 07:12 pm NE 2.9 4.1----30.23- 52.9 54.1----
2024-02-22 07:06 pm NE 2.9 4.1----30.23- 53.2 54.1----
2024-02-22 07:00 pm NE 1.9 1.9----30.23+0.02 53.8 54.1----
2024-02-22 06:54 pmNNE 1.0 1.9----30.23- 54.0 54.1----
2024-02-22 06:48 pmNNE 1.0 1.0----30.23-- 54.1----
2024-02-22 06:42 pm- 0.0 1.0----30.22- 53.6 54.3----
2024-02-22 06:36 pmENE 1.9 1.9----30.22- 54.0 54.3----
2024-02-22 06:30 pm E 1.0 2.9----30.21- 54.1 54.3----
2024-02-22 06:24 pm E 1.9 4.1----30.21- 54.3 54.3----
2024-02-22 06:18 pm E 2.9 4.1----30.21- 54.7 54.1----
2024-02-22 06:12 pm E 1.9 1.9----30.21- 55.0 54.1----
2024-02-22 06:06 pmESE 1.0 1.9----30.21- 54.9 54.1----
2024-02-22 06:00 pm- 0.0 1.9----30.21-0.02 55.2 54.1----
2024-02-22 05:54 pm- 0.0 1.9----30.21- 55.0 54.1----